User: anonymous   Login
Location: La B�doule
(43.2468°N, 5.5934°E)
Time: 11:43:55
(UTC+00:00)
Language:

STARLINK-71 - Orbit

View from above orbital plane
View from above orbital plane
View from above satellite
View from above satellite

Ground track
Ground track

The orbit data is extracted from the following two-line orbital elements,

1 44252C 19029T   20227.09714159  .00003791  00000-0  21530-3 0  2275
2 44252  53.0012 308.2018 0001553  89.1949 226.8576 15.12413925    16
Epoch (UTC): 14 August 2020 02:19:53
Eccentricity: 0.0001553
inclination: 53.0012°
perigee height: 528 km
apogee height: 530 km
right ascension of ascending node: 308.2018°
argument of perigee: 89.1949°
revolutions per day: 15.12413925
mean anomaly at epoch: 226.8576°
orbit number at epoch: 1

The dashed part of the orbit path shows where the satellite is in the earth's shadow,  

DLR